Time,TemperatureF,DewpointF,PressureIn,WindDirection,WindDirectionDegrees,WindSpeedMPH,WindSpeedGustMPH,Humidity,HourlyPrecipIn,Conditions,Clouds,dailyrainin,SoftwareType,DateUTC
2013-08-02 00:04:00,67.6,54.0,29.93,NW,317,4.0,5.9,61,0.00,,,0.00,CWS Microserver 1.4,2013-08-02 05:04:00,
2013-08-02 00:09:00,67.4,54.1,29.93,NW,318,4.5,5.9,62,0.00,,,0.00,CWS Microserver 1.4,2013-08-02 05:09:00,
2013-08-02 00:14:00,67.4,54.2,29.93,NW,319,4.9,5.4,62,0.00,,,0.00,CWS Microserver 1.4,2013-08-02 05:14:00,
2013-08-02 00:19:00,67.4,54.1,29.92,NW,323,4.3,5.7,62,0.00,,,0.00,CWS Microserver 1.4,2013-08-02 05:19:00,
2013-08-02 00:24:00,67.4,53.8,29.92,NNW,337,3.7,6.4,61,0.00,,,0.00,CWS Microserver 1.4,2013-08-02 05:24:00,
2013-08-02 00:29:00,67.4,54.1,29.92,NW,324,3.8,6.4,62,0.00,,,0.00,CWS Microserver 1.4,2013-08-02 05:29:00,
2013-08-02 00:34:00,67.2,54.1,29.92,NW,316,3.4,5.7,62,0.00,,,0.00,CWS Microserver 1.4,2013-08-02 05:34:00,
2013-08-02 00:39:00,67.4,53.8,29.92,WNW,298,3.7,6.4,61,0.00,,,0.00,CWS Microserver 1.4,2013-08-02 05:39:00,
2013-08-02 00:44:00,67.4,54.2,29.92,NW,322,1.5,6.4,62,0.00,,,0.00,CWS Microserver 1.4,2013-08-02 05:44:00,
2013-08-02 00:49:00,67.2,54.4,29.92,West,272,2.0,4.1,63,0.00,,,0.00,CWS Microserver 1.4,2013-08-02 05:49:00,
2013-08-02 00:54:00,67.2,53.5,29.93,West,277,3.3,3.7,61,0.00,,,0.00,CWS Microserver 1.4,2013-08-02 05:54:00,
2013-08-02 00:59:00,67.4,53.9,29.93,West,280,3.3,4.3,62,0.00,,,0.00,CWS Microserver 1.4,2013-08-02 05:59:00,
2013-08-02 01:04:00,67.2,53.9,29.93,West,278,3.5,4.3,62,0.00,,,0.00,CWS Microserver 1.4,2013-08-02 06:04:00,
2013-08-02 01:09:00,66.9,54.2,29.93,West,273,5.2,5.5,63,0.00,,,0.00,CWS Microserver 1.4,2013-08-02 06:09:00,
2013-08-02 01:14:00,67.1,53.9,29.94,West,271,4.6,5.8,62,0.00,,,0.00,CWS Microserver 1.4,2013-08-02 06:14:00,
2013-08-02 01:19:00,67.1,54.7,29.93,West,262,4.0,6.0,64,0.00,,,0.00,CWS Microserver 1.4,2013-08-02 06:19:00,
2013-08-02 01:29:00,66.2,54.7,29.94,West,280,4.3,6.1,66,0.00,,,0.00,CWS Microserver 1.4,2013-08-02 06:29:00,
2013-08-02 01:34:00,66.0,55.0,29.94,West,271,5.2,5.4,67,0.00,,,0.00,CWS Microserver 1.4,2013-08-02 06:34:00,
2013-08-02 01:39:00,65.6,54.8,29.95,West,269,4.2,5.6,68,0.00,,,0.00,CWS Microserver 1.4,2013-08-02 06:39:00,
2013-08-02 01:44:00,65.6,55.0,29.95,West,262,4.1,5.6,68,0.00,,,0.00,CWS Microserver 1.4,2013-08-02 06:44:00,
2013-08-02 01:49:00,65.8,54.5,29.95,WSW,258,2.6,5.7,67,0.00,,,0.00,CWS Microserver 1.4,2013-08-02 06:49:00,
2013-08-02 01:54:00,66.2,54.6,29.94,WSW,255,3.2,5.7,66,0.00,,,0.00,CWS Microserver 1.4,2013-08-02 06:54:00,
2013-08-02 01:59:00,66.3,54.7,29.94,West,266,4.1,5.8,66,0.00,,,0.00,CWS Microserver 1.4,2013-08-02 06:59:00,
2013-08-02 02:04:00,66.2,54.3,29.94,WNW,285,4.7,5.8,65,0.00,,,0.00,CWS Microserver 1.4,2013-08-02 07:04:00,
2013-08-02 02:09:00,65.6,54.4,29.94,NW,311,5.3,6.0,67,0.00,,,0.00,CWS Microserver 1.4,2013-08-02 07:09:00,
2013-08-02 02:14:00,65.1,54.5,29.93,NW,325,5.1,6.7,68,0.00,,,0.00,CWS Microserver 1.4,2013-08-02 07:14:00,
2013-08-02 02:19:00,64.4,54.8,29.93,NW,305,2.7,6.7,71,0.00,,,0.00,CWS Microserver 1.4,2013-08-02 07:19:00,
2013-08-02 02:24:00,63.8,54.6,29.93,WNW,295,3.1,6.2,72,0.00,,,0.00,CWS Microserver 1.4,2013-08-02 07:24:00,
2013-08-02 02:29:00,63.8,54.8,29.93,West,279,3.6,4.7,72,0.00,,,0.00,CWS Microserver 1.4,2013-08-02 07:29:00,
2013-08-02 02:34:00,63.5,54.9,29.93,West,276,4.0,4.8,73,0.00,,,0.00,CWS Microserver 1.4,2013-08-02 07:34:00,
2013-08-02 02:39:00,63.8,54.1,29.93,West,267,4.1,5.0,70,0.00,,,0.00,CWS Microserver 1.4,2013-08-02 07:39:00,
2013-08-02 02:44:00,64.2,54.1,29.93,West,259,4.1,5.0,69,0.00,,,0.00,CWS Microserver 1.4,2013-08-02 07:44:00,
2013-08-02 02:49:00,64.0,54.0,29.93,West,270,4.3,4.7,69,0.00,,,0.00,CWS Microserver 1.4,2013-08-02 07:49:00,
2013-08-02 02:54:00,63.5,54.1,29.93,WNW,282,4.0,6.5,71,0.00,,,0.00,CWS Microserver 1.4,2013-08-02 07:54:00,
2013-08-02 02:59:00,62.9,54.0,29.93,WNW,283,3.6,6.5,72,0.00,,,0.00,CWS Microserver 1.4,2013-08-02 07:59:00,
2013-08-02 03:04:00,62.7,53.9,29.93,West,277,5.3,5.4,73,0.00,,,0.00,CWS Microserver 1.4,2013-08-02 08:04:00,
2013-08-02 03:09:00,62.9,53.6,29.93,West,278,6.3,6.8,71,0.00,,,0.00,CWS Microserver 1.4,2013-08-02 08:09:00,
2013-08-02 03:14:00,62.9,53.4,29.93,West,275,3.8,6.8,71,0.00,,,0.00,CWS Microserver 1.4,2013-08-02 08:14:00,
2013-08-02 03:19:00,63.3,53.2,29.93,WNW,294,4.0,6.3,69,0.00,,,0.00,CWS Microserver 1.4,2013-08-02 08:19:00,
2013-08-02 03:24:00,63.6,53.5,29.93,WNW,285,4.5,5.4,69,0.00,,,0.00,CWS Microserver 1.4,2013-08-02 08:24:00,
2013-08-02 03:29:00,63.6,53.3,29.93,WNW,296,3.1,5.2,69,0.00,,,0.00,CWS Microserver 1.4,2013-08-02 08:29:00,
2013-08-02 03:34:00,63.8,53.9,29.93,West,280,4.1,5.2,70,0.00,,,0.00,CWS Microserver 1.4,2013-08-02 08:34:00,
2013-08-02 03:39:00,63.5,53.7,29.93,WNW,298,3.6,4.6,70,0.00,,,0.00,CWS Microserver 1.4,2013-08-02 08:39:00,
2013-08-02 03:44:00,63.5,53.7,29.93,NW,313,4.2,4.7,70,0.00,,,0.00,CWS Microserver 1.4,2013-08-02 08:44:00,
2013-08-02 03:49:00,63.6,53.6,29.92,NW,305,4.0,5.1,69,0.00,,,0.00,CWS Microserver 1.4,2013-08-02 08:49:00,
2013-08-02 03:54:00,63.8,53.8,29.92,WNW,298,3.9,5.4,70,0.00,,,0.00,CWS Microserver 1.4,2013-08-02 08:54:00,
2013-08-02 03:59:00,63.8,53.7,29.92,West,281,1.8,5.4,69,0.00,,,0.00,CWS Microserver 1.4,2013-08-02 08:59:00,
2013-08-02 04:04:00,63.8,53.5,29.92,WNW,298,2.7,4.4,69,0.00,,,0.00,CWS Microserver 1.4,2013-08-02 09:04:00,
2013-08-02 04:09:00,63.6,53.1,29.92,NW,315,3.7,4.3,68,0.00,,,0.00,CWS Microserver 1.4,2013-08-02 09:09:00,
2013-08-02 04:14:00,63.5,53.7,29.92,North,356,3.1,4.4,70,0.00,,,0.00,CWS Microserver 1.4,2013-08-02 09:14:00,
2013-08-02 04:19:00,63.1,53.8,29.92,NNW,329,3.3,4.4,71,0.00,,,0.00,CWS Microserver 1.4,2013-08-02 09:19:00,
2013-08-02 04:24:00,62.7,53.7,29.92,NW,317,3.6,4.2,72,0.00,,,0.00,CWS Microserver 1.4,2013-08-02 09:24:00,
2013-08-02 04:29:00,62.6,53.6,29.91,NNW,330,1.7,4.4,72,0.00,,,0.00,CWS Microserver 1.4,2013-08-02 09:29:00,
2013-08-02 04:34:00,62.6,53.5,29.92,NW,313,2.2,4.4,72,0.00,,,0.00,CWS Microserver 1.4,2013-08-02 09:34:00,
2013-08-02 04:39:00,62.7,53.3,29.92,West,267,2.2,4.1,71,0.00,,,0.00,CWS Microserver 1.4,2013-08-02 09:39:00,
2013-08-02 04:44:00,62.9,53.3,29.92,West,261,3.4,3.7,71,0.00,,,0.00,CWS Microserver 1.4,2013-08-02 09:44:00,
2013-08-02 04:49:00,63.3,53.6,29.92,SW,224,2.1,4.3,70,0.00,,,0.00,CWS Microserver 1.4,2013-08-02 09:49:00,
2013-08-02 04:54:00,62.9,53.8,29.93,WSW,245,3.7,5.6,72,0.00,,,0.00,CWS Microserver 1.4,2013-08-02 09:54:00,
2013-08-02 04:59:00,62.7,53.9,29.93,WSW,239,4.8,5.8,73,0.00,,,0.00,CWS Microserver 1.4,2013-08-02 09:59:00,
2013-08-02 05:04:00,62.7,53.8,29.92,SW,225,3.7,5.9,72,0.00,,,0.00,CWS Microserver 1.4,2013-08-02 10:04:00,
2013-08-02 05:09:00,62.7,53.9,29.93,WSW,251,2.9,5.9,73,0.00,,,0.00,CWS Microserver 1.4,2013-08-02 10:09:00,
2013-08-02 05:14:00,62.6,54.1,29.93,SW,232,6.7,7.6,73,0.00,,,0.00,CWS Microserver 1.4,2013-08-02 10:14:00,
2013-08-02 05:19:00,62.2,54.2,29.93,SW,234,7.8,8.2,75,0.00,,,0.00,CWS Microserver 1.4,2013-08-02 10:19:00,
2013-08-02 05:24:00,62.0,54.4,29.93,WSW,255,4.7,9.1,76,0.00,,,0.00,CWS Microserver 1.4,2013-08-02 10:24:00,
2013-08-02 05:29:00,62.2,54.3,29.93,WSW,254,2.6,9.1,75,0.00,,,0.00,CWS Microserver 1.4,2013-08-02 10:29:00,
2013-08-02 05:34:00,62.4,54.5,29.93,WSW,247,5.7,7.2,75,0.00,,,0.00,CWS Microserver 1.4,2013-08-02 10:34:00,
2013-08-02 05:39:00,62.7,54.4,29.93,SW,236,3.6,7.2,74,0.00,,,0.00,CWS Microserver 1.4,2013-08-02 10:39:00,
2013-08-02 05:44:00,62.9,54.3,29.93,West,260,3.8,6.0,73,0.00,,,0.00,CWS Microserver 1.4,2013-08-02 10:44:00,
2013-08-02 05:49:00,62.7,54.7,29.94,WSW,258,1.7,6.0,75,0.00,,,0.00,CWS Microserver 1.4,2013-08-02 10:49:00,
2013-08-02 05:54:00,62.4,54.4,29.94,WSW,258,4.3,5.8,75,0.00,,,0.00,CWS Microserver 1.4,2013-08-02 10:54:00,
2013-08-02 05:59:00,62.4,54.6,29.94,WSW,258,1.9,4.9,75,0.00,,,0.00,CWS Microserver 1.4,2013-08-02 10:59:00,
2013-08-02 06:04:00,62.6,54.4,29.95,WSW,245,4.0,5.3,74,0.00,,,0.00,CWS Microserver 1.4,2013-08-02 11:04:00,
2013-08-02 06:09:00,62.7,54.5,29.95,SW,217,1.4,5.5,74,0.00,,,0.00,CWS Microserver 1.4,2013-08-02 11:09:00,
2013-08-02 06:14:00,62.9,54.8,29.95,West,271,4.3,5.5,74,0.00,,,0.00,CWS Microserver 1.4,2013-08-02 11:14:00,
2013-08-02 06:19:00,62.7,54.9,29.95,WSW,251,6.5,6.7,75,0.00,,,0.00,CWS Microserver 1.4,2013-08-02 11:19:00,
2013-08-02 06:24:00,62.6,55.0,29.95,WSW,238,3.1,7.3,76,0.00,,,0.00,CWS Microserver 1.4,2013-08-02 11:24:00,
2013-08-02 06:29:00,62.7,54.8,29.95,West,278,3.2,7.3,75,0.00,,,0.00,CWS Microserver 1.4,2013-08-02 11:29:00,
2013-08-02 06:34:00,62.6,54.6,29.95,WNW,287,4.3,6.3,75,0.00,,,0.00,CWS Microserver 1.4,2013-08-02 11:34:00,
2013-08-02 06:44:00,62.6,55.2,29.95,WNW,302,3.1,6.6,76,0.00,,,0.00,CWS Microserver 1.4,2013-08-02 11:44:00,
2013-08-02 06:49:00,62.6,54.9,29.95,NW,311,2.8,5.1,75,0.00,,,0.00,CWS Microserver 1.4,2013-08-02 11:49:00,
2013-08-02 06:54:00,62.7,55.1,29.95,WNW,303,2.0,4.0,76,0.00,,,0.00,CWS Microserver 1.4,2013-08-02 11:54:00,
2013-08-02 06:59:00,62.9,55.0,29.95,West,267,3.2,4.7,75,0.00,,,0.00,CWS Microserver 1.4,2013-08-02 11:59:00,
2013-08-02 07:04:00,63.3,55.4,29.95,West,278,2.7,5.2,75,0.00,,,0.00,CWS Microserver 1.4,2013-08-02 12:04:00,
2013-08-02 07:09:00,63.3,55.6,29.95,NW,311,3.2,5.2,76,0.00,,,0.00,CWS Microserver 1.4,2013-08-02 12:09:00,
2013-08-02 07:14:00,63.5,55.3,29.95,NNW,333,4.7,5.2,74,0.00,,,0.00,CWS Microserver 1.4,2013-08-02 12:14:00,
2013-08-02 07:19:00,63.5,55.3,29.95,NW,323,2.9,5.2,74,0.00,,,0.00,CWS Microserver 1.4,2013-08-02 12:19:00,
2013-08-02 07:24:00,63.6,55.2,29.95,NNW,342,4.5,5.4,74,0.00,,,0.00,CWS Microserver 1.4,2013-08-02 12:24:00,
2013-08-02 07:29:00,64.0,54.7,29.95,NNW,334,4.2,5.8,71,0.00,,,0.00,CWS Microserver 1.4,2013-08-02 12:29:00,
2013-08-02 07:34:00,64.4,54.5,29.95,NNW,345,4.6,7.4,70,0.00,,,0.00,CWS Microserver 1.4,2013-08-02 12:34:00,
2013-08-02 07:39:00,64.5,54.5,29.95,North,349,3.9,8.1,70,0.00,,,0.00,CWS Microserver 1.4,2013-08-02 12:39:00,
2013-08-02 07:44:00,64.5,53.8,29.95,NNE,13,6.5,8.1,68,0.00,,,0.00,CWS Microserver 1.4,2013-08-02 12:44:00,
2013-08-02 07:49:00,64.5,53.3,29.96,North,0,5.5,8.1,67,0.00,,,0.00,CWS Microserver 1.4,2013-08-02 12:49:00,
2013-08-02 07:54:00,64.4,53.5,29.96,NNE,13,7.0,7.1,67,0.00,,,0.00,CWS Microserver 1.4,2013-08-02 12:54:00,
2013-08-02 07:59:00,64.2,53.7,29.95,NNE,13,6.3,8.4,68,0.00,,,0.00,CWS Microserver 1.4,2013-08-02 12:59:00,
2013-08-02 08:04:00,64.0,54.3,29.95,NNE,25,6.1,8.4,70,0.00,,,0.00,CWS Microserver 1.4,2013-08-02 13:04:00,
2013-08-02 08:09:00,64.4,54.4,29.96,NNE,15,5.1,8.4,70,0.00,,,0.00,CWS Microserver 1.4,2013-08-02 13:09:00,
2013-08-02 08:14:00,64.5,53.8,29.95,NNE,20,2.8,8.6,68,0.00,,,0.00,CWS Microserver 1.4,2013-08-02 13:14:00,
2013-08-02 08:19:00,64.7,54.1,29.95,NE,38,6.6,9.7,68,0.00,,,0.00,CWS Microserver 1.4,2013-08-02 13:19:00,
2013-08-02 08:24:00,64.7,54.4,29.95,NNE,23,6.5,9.7,69,0.00,,,0.00,CWS Microserver 1.4,2013-08-02 13:24:00,
2013-08-02 08:29:00,64.9,54.6,29.96,NNE,15,8.4,9.6,69,0.00,,,0.00,CWS Microserver 1.4,2013-08-02 13:29:00,
2013-08-02 08:34:00,65.3,53.9,29.96,NNE,31,7.4,10.6,66,0.00,,,0.00,CWS Microserver 1.4,2013-08-02 13:34:00,
2013-08-02 08:39:00,65.6,53.4,29.95,NE,41,9.0,10.8,64,0.00,,,0.00,CWS Microserver 1.4,2013-08-02 13:39:00,
2013-08-02 08:44:00,66.0,53.9,29.95,North,11,2.3,11.6,65,0.00,,,0.00,CWS Microserver 1.4,2013-08-02 13:44:00,
2013-08-02 08:49:00,66.7,53.1,29.95,NNE,30,5.8,12.4,61,0.00,,,0.00,CWS Microserver 1.4,2013-08-02 13:49:00,
2013-08-02 08:54:00,66.5,53.3,29.95,NNE,26,9.1,13.2,62,0.00,,,0.00,CWS Microserver 1.4,2013-08-02 13:54:00,
2013-08-02 08:59:00,66.5,53.2,29.95,NE,38,8.8,13.7,62,0.00,,,0.00,CWS Microserver 1.4,2013-08-02 13:59:00,
2013-08-02 09:04:00,66.9,53.1,29.95,NE,49,6.9,14.5,61,0.00,,,0.00,CWS Microserver 1.4,2013-08-02 14:04:00,
2013-08-02 09:09:00,67.4,53.1,29.95,NNE,22,12.3,14.5,60,0.00,,,0.00,CWS Microserver 1.4,2013-08-02 14:09:00,
2013-08-02 09:14:00,67.4,52.7,29.95,NNE,26,6.3,14.5,59,0.00,,,0.00,CWS Microserver 1.4,2013-08-02 14:14:00,
2013-08-02 09:19:00,67.6,52.7,29.96,NE,45,10.0,14.7,59,0.00,,,0.00,CWS Microserver 1.4,2013-08-02 14:19:00,
2013-08-02 09:24:00,67.8,52.3,29.96,NE,51,6.6,14.7,57,0.00,,,0.00,CWS Microserver 1.4,2013-08-02 14:24:00,
2013-08-02 09:29:00,68.3,52.8,29.96,NNE,14,5.8,12.0,57,0.00,,,0.00,CWS Microserver 1.4,2013-08-02 14:29:00,
2013-08-02 09:34:00,68.7,51.8,29.96,NNE,33,9.4,13.3,55,0.00,,,0.00,CWS Microserver 1.4,2013-08-02 14:34:00,
2013-08-02 09:39:00,68.3,53.2,29.95,NE,54,9.1,13.3,58,0.00,,,0.00,CWS Microserver 1.4,2013-08-02 14:39:00,
2013-08-02 09:44:00,69.0,53.1,29.95,NE,50,8.5,12.3,57,0.00,,,0.00,CWS Microserver 1.4,2013-08-02 14:44:00,
2013-08-02 09:49:00,69.2,53.7,29.95,NE,49,10.2,13.3,57,0.00,,,0.00,CWS Microserver 1.4,2013-08-02 14:49:00,
2013-08-02 09:54:00,68.7,52.6,29.95,NNE,30,9.7,16.4,56,0.00,,,0.00,CWS Microserver 1.4,2013-08-02 14:54:00,
2013-08-02 10:04:00,68.7,52.9,29.95,NNE,33,10.0,14.9,57,0.00,,,0.00,CWS Microserver 1.4,2013-08-02 15:04:00,
2013-08-02 10:09:00,69.0,52.3,29.96,NNE,31,6.5,14.9,55,0.00,,,0.00,CWS Microserver 1.4,2013-08-02 15:09:00,
2013-08-02 10:14:00,69.6,53.3,29.96,NNE,29,9.3,10.6,56,0.00,,,0.00,CWS Microserver 1.4,2013-08-02 15:14:00,
2013-08-02 10:19:00,68.5,52.3,29.97,NNE,26,6.5,11.6,56,0.00,,,0.00,CWS Microserver 1.4,2013-08-02 15:19:00,
2013-08-02 10:24:00,69.0,53.0,29.96,NE,37,11.4,14.0,56,0.00,,,0.00,CWS Microserver 1.4,2013-08-02 15:24:00,
2013-08-02 10:29:00,68.7,52.8,29.96,NE,39,8.8,15.4,56,0.00,,,0.00,CWS Microserver 1.4,2013-08-02 15:29:00,
2013-08-02 10:34:00,68.5,53.1,29.96,NE,45,8.2,15.4,58,0.00,,,0.00,CWS Microserver 1.4,2013-08-02 15:34:00,
2013-08-02 10:39:00,68.3,52.3,29.96,NE,40,8.2,15.2,56,0.00,,,0.00,CWS Microserver 1.4,2013-08-02 15:39:00,
2013-08-02 10:44:00,68.5,52.0,29.96,NNE,33,8.0,15.2,55,0.00,,,0.00,CWS Microserver 1.4,2013-08-02 15:44:00,
2013-08-02 10:49:00,69.0,53.3,29.97,NE,45,5.7,13.9,57,0.00,,,0.00,CWS Microserver 1.4,2013-08-02 15:49:00,
2013-08-02 10:54:00,69.4,53.8,29.97,NNE,15,3.6,11.9,57,0.00,,,0.00,CWS Microserver 1.4,2013-08-02 15:54:00,
2013-08-02 10:59:00,69.8,51.4,29.97,NNE,31,7.6,11.2,52,0.00,,,0.00,CWS Microserver 1.4,2013-08-02 15:59:00,
2013-08-02 11:04:00,69.8,53.7,29.98,NNE,30,6.6,10.2,56,0.00,,,0.00,CWS Microserver 1.4,2013-08-02 16:04:00,
2013-08-02 11:09:00,69.8,52.9,29.98,NE,48,7.6,10.1,55,0.00,,,0.00,CWS Microserver 1.4,2013-08-02 16:09:00,
2013-08-02 11:14:00,69.6,52.0,29.98,ENE,64,5.3,10.7,53,0.00,,,0.00,CWS Microserver 1.4,2013-08-02 16:14:00,
2013-08-02 11:24:00,69.6,51.5,29.98,NNE,30,5.2,9.8,52,0.00,,,0.00,CWS Microserver 1.4,2013-08-02 16:24:00,
2013-08-02 11:29:00,69.8,51.9,29.98,NE,37,6.9,9.8,53,0.00,,,0.00,CWS Microserver 1.4,2013-08-02 16:29:00,
2013-08-02 11:34:00,69.6,52.7,29.98,NE,50,5.7,9.6,55,0.00,,,0.00,CWS Microserver 1.4,2013-08-02 16:34:00,
2013-08-02 11:39:00,69.9,51.8,29.98,NNE,29,5.0,9.6,52,0.00,,,0.00,CWS Microserver 1.4,2013-08-02 16:39:00,
2013-08-02 11:44:00,69.9,53.0,29.98,North,4,4.7,8.1,55,0.00,,,0.00,CWS Microserver 1.4,2013-08-02 16:44:00,
2013-08-02 11:49:00,69.9,53.4,29.99,NNE,25,4.8,8.1,56,0.00,,,0.00,CWS Microserver 1.4,2013-08-02 16:49:00,
2013-08-02 11:54:00,70.1,53.0,29.98,NNE,29,7.6,8.2,54,0.00,,,0.00,CWS Microserver 1.4,2013-08-02 16:54:00,
2013-08-02 11:59:00,70.3,51.8,29.98,NE,35,4.8,10.4,52,0.00,,,0.00,CWS Microserver 1.4,2013-08-02 16:59:00,
2013-08-02 12:04:00,70.5,51.0,29.99,NE,35,8.2,10.4,50,0.00,,,0.00,CWS Microserver 1.4,2013-08-02 17:04:00,
2013-08-02 12:09:00,70.5,52.2,29.99,NNE,13,3.0,10.2,52,0.00,,,0.00,CWS Microserver 1.4,2013-08-02 17:09:00,
2013-08-02 12:14:00,70.5,51.4,29.99,NE,41,8.7,10.1,51,0.00,,,0.00,CWS Microserver 1.4,2013-08-02 17:14:00,
2013-08-02 12:19:00,70.3,50.9,30.00,North,1,5.1,10.1,50,0.00,,,0.00,CWS Microserver 1.4,2013-08-02 17:19:00,
2013-08-02 12:24:00,70.5,51.3,30.00,NNE,28,4.5,9.1,50,0.00,,,0.00,CWS Microserver 1.4,2013-08-02 17:24:00,
2013-08-02 12:29:00,70.7,51.6,30.00,NNE,20,7.3,7.5,50,0.00,,,0.00,CWS Microserver 1.4,2013-08-02 17:29:00,
2013-08-02 12:34:00,70.7,50.9,30.00,ENE,61,1.4,7.5,49,0.00,,,0.00,CWS Microserver 1.4,2013-08-02 17:34:00,
2013-08-02 12:39:00,70.8,51.2,30.00,North,4,0.8,7.3,50,0.00,,,0.00,CWS Microserver 1.4,2013-08-02 17:39:00,
2013-08-02 12:44:00,71.0,50.9,30.00,West,260,3.2,4.3,49,0.00,,,0.00,CWS Microserver 1.4,2013-08-02 17:44:00,
2013-08-02 12:49:00,71.2,51.0,30.01,West,267,2.6,4.4,48,0.00,,,0.00,CWS Microserver 1.4,2013-08-02 17:49:00,
2013-08-02 12:54:00,71.0,50.8,30.01,West,280,1.4,4.4,49,0.00,,,0.00,CWS Microserver 1.4,2013-08-02 17:54:00,
2013-08-02 12:59:00,71.4,52.0,30.01,WNW,288,1.9,4.6,50,0.00,,,0.00,CWS Microserver 1.4,2013-08-02 17:59:00,
2013-08-02 13:04:00,71.7,51.5,30.01,WNW,285,2.6,5.3,49,0.00,,,0.00,CWS Microserver 1.4,2013-08-02 18:04:00,
2013-08-02 13:09:00,71.6,51.5,30.01,SSW,203,3.2,5.5,49,0.00,,,0.00,CWS Microserver 1.4,2013-08-02 18:09:00,
2013-08-02 13:14:00,71.9,51.9,30.01,WNW,285,5.1,5.8,49,0.00,,,0.00,CWS Microserver 1.4,2013-08-02 18:14:00,
2013-08-02 13:19:00,71.6,50.9,30.01,West,268,4.6,7.2,48,0.00,,,0.00,CWS Microserver 1.4,2013-08-02 18:19:00,
2013-08-02 13:24:00,71.4,50.5,30.01,West,261,5.5,7.2,47,0.00,,,0.00,CWS Microserver 1.4,2013-08-02 18:24:00,
2013-08-02 13:29:00,71.7,51.2,30.01,SSW,209,4.7,6.9,48,0.00,,,0.00,CWS Microserver 1.4,2013-08-02 18:29:00,
2013-08-02 13:34:00,71.9,51.8,30.01,NNW,328,4.0,6.3,49,0.00,,,0.00,CWS Microserver 1.4,2013-08-02 18:34:00,
2013-08-02 13:39:00,71.7,50.2,30.00,NNE,13,1.1,6.4,46,0.00,,,0.00,CWS Microserver 1.4,2013-08-02 18:39:00,
2013-08-02 13:44:00,71.4,50.3,30.00,ENE,61,2.2,6.4,47,0.00,,,0.00,CWS Microserver 1.4,2013-08-02 18:44:00,
2013-08-02 13:49:00,71.7,50.8,30.00,NE,40,3.8,4.9,47,0.00,,,0.00,CWS Microserver 1.4,2013-08-02 18:49:00,
2013-08-02 13:54:00,71.7,50.8,30.00,NNW,331,2.6,4.6,47,0.00,,,0.00,CWS Microserver 1.4,2013-08-02 18:54:00,
2013-08-02 13:59:00,71.7,51.1,30.00,NW,312,4.5,4.6,48,0.00,,,0.00,CWS Microserver 1.4,2013-08-02 18:59:00,
2013-08-02 14:04:00,71.6,51.6,30.00,North,8,5.2,7.2,49,0.00,,,0.00,CWS Microserver 1.4,2013-08-02 19:04:00,
2013-08-02 14:09:00,71.0,51.4,30.00,NNE,29,3.4,7.2,50,0.00,,,0.00,CWS Microserver 1.4,2013-08-02 19:09:00,
2013-08-02 14:14:00,71.0,50.4,30.00,North,6,5.6,6.6,48,0.00,,,0.00,CWS Microserver 1.4,2013-08-02 19:14:00,
2013-08-02 14:19:00,71.0,51.0,30.00,North,9,4.8,7.6,49,0.00,,,0.00,CWS Microserver 1.4,2013-08-02 19:19:00,
2013-08-02 14:24:00,71.0,51.7,30.00,NNE,19,5.3,7.6,50,0.00,,,0.00,CWS Microserver 1.4,2013-08-02 19:24:00,
2013-08-02 14:29:00,70.8,52.7,30.00,NNE,21,4.6,6.6,52,0.00,,,0.00,CWS Microserver 1.4,2013-08-02 19:29:00,
2013-08-02 14:34:00,70.7,54.3,30.00,North,359,3.8,6.6,56,0.00,,,0.00,CWS Microserver 1.4,2013-08-02 19:34:00,
2013-08-02 14:39:00,70.7,52.2,30.00,NNE,25,5.4,7.6,52,0.00,,,0.00,CWS Microserver 1.4,2013-08-02 19:39:00,
2013-08-02 14:44:00,70.7,52.7,30.00,NNE,24,5.1,7.6,53,0.00,,,0.00,CWS Microserver 1.4,2013-08-02 19:44:00,
2013-08-02 14:49:00,70.5,52.4,30.00,NNE,18,7.7,8.0,52,0.00,,,0.00,CWS Microserver 1.4,2013-08-02 19:49:00,
2013-08-02 14:54:00,70.1,53.7,30.00,North,11,5.3,8.4,56,0.00,,,0.00,CWS Microserver 1.4,2013-08-02 19:54:00,
2013-08-02 14:59:00,70.3,53.6,30.00,NE,37,4.5,8.4,55,0.00,,,0.00,CWS Microserver 1.4,2013-08-02 19:59:00,
2013-08-02 15:04:00,70.5,53.2,30.00,North,359,3.9,5.7,54,0.00,,,0.00,CWS Microserver 1.4,2013-08-02 20:04:00,
2013-08-02 15:09:00,70.7,52.6,30.00,North,8,5.2,6.0,52,0.00,,,0.00,CWS Microserver 1.4,2013-08-02 20:09:00,
2013-08-02 15:14:00,70.8,52.4,30.00,NNE,24,3.6,6.0,52,0.00,,,0.00,CWS Microserver 1.4,2013-08-02 20:14:00,
2013-08-02 15:19:00,71.0,53.0,30.01,North,0,3.3,6.6,53,0.00,,,0.00,CWS Microserver 1.4,2013-08-02 20:19:00,
2013-08-02 15:24:00,71.0,51.7,30.00,North,4,4.8,6.6,50,0.00,,,0.00,CWS Microserver 1.4,2013-08-02 20:24:00,
2013-08-02 15:29:00,71.2,52.0,30.01,NNW,347,4.1,6.3,50,0.00,,,0.00,CWS Microserver 1.4,2013-08-02 20:29:00,
2013-08-02 15:34:00,71.4,52.3,30.01,NNE,25,5.9,5.9,51,0.00,,,0.00,CWS Microserver 1.4,2013-08-02 20:34:00,
2013-08-02 15:39:00,71.4,53.1,30.01,North,350,0.9,5.9,52,0.00,,,0.00,CWS Microserver 1.4,2013-08-02 20:39:00,
2013-08-02 15:44:00,71.4,51.7,30.01,NNW,337,4.3,5.9,49,0.00,,,0.00,CWS Microserver 1.4,2013-08-02 20:44:00,
2013-08-02 15:49:00,71.2,51.9,30.01,NW,311,4.4,5.7,50,0.00,,,0.00,CWS Microserver 1.4,2013-08-02 20:49:00,
2013-08-02 15:54:00,71.2,52.6,30.01,NW,317,2.8,5.7,51,0.00,,,0.00,CWS Microserver 1.4,2013-08-02 20:54:00,
2013-08-02 15:59:00,71.0,53.8,30.01,NW,311,4.3,5.8,54,0.00,,,0.00,CWS Microserver 1.4,2013-08-02 20:59:00,
2013-08-02 16:04:00,70.8,54.7,30.01,NW,311,7.2,7.3,56,0.00,,,0.00,CWS Microserver 1.4,2013-08-02 21:04:00,
2013-08-02 16:09:00,69.9,55.2,30.01,NNE,27,3.5,8.7,59,0.00,,,0.00,CWS Microserver 1.4,2013-08-02 21:09:00,
2013-08-02 16:14:00,69.2,54.0,30.00,NE,39,4.0,8.7,58,0.00,,,0.00,CWS Microserver 1.4,2013-08-02 21:14:00,
2013-08-02 16:19:00,69.2,54.3,30.00,NE,49,4.4,7.6,59,0.00,,,0.00,CWS Microserver 1.4,2013-08-02 21:19:00,
2013-08-02 16:24:00,69.0,54.5,30.00,NNE,33,3.7,7.6,60,0.01,,,0.01,CWS Microserver 1.4,2013-08-02 21:24:00,
2013-08-02 16:29:00,68.5,55.8,30.00,NNE,25,3.7,6.2,64,0.01,,,0.01,CWS Microserver 1.4,2013-08-02 21:29:00,
2013-08-02 16:34:00,68.1,54.3,29.99,NE,44,4.4,5.8,61,0.01,,,0.01,CWS Microserver 1.4,2013-08-02 21:34:00,
2013-08-02 16:39:00,67.8,55.7,29.99,NE,41,4.4,5.8,65,0.01,,,0.01,CWS Microserver 1.4,2013-08-02 21:39:00,
2013-08-02 16:44:00,67.8,56.2,29.99,NNE,32,4.2,5.8,66,0.01,,,0.01,CWS Microserver 1.4,2013-08-02 21:44:00,
2013-08-02 16:49:00,67.8,57.3,29.99,NNE,33,1.8,5.8,69,0.02,,,0.02,CWS Microserver 1.4,2013-08-02 21:49:00,
2013-08-02 16:54:00,68.1,57.3,29.98,NE,56,3.8,5.4,68,0.02,,,0.02,CWS Microserver 1.4,2013-08-02 21:54:00,
2013-08-02 16:59:00,68.5,57.3,29.98,ENE,61,4.3,5.8,67,0.02,,,0.02,CWS Microserver 1.4,2013-08-02 21:59:00,
2013-08-02 17:04:00,68.7,55.7,29.99,NE,55,5.5,7.2,63,0.02,,,0.02,CWS Microserver 1.4,2013-08-02 22:04:00,
2013-08-02 17:09:00,69.0,57.2,30.00,NE,34,5.9,7.2,66,0.02,,,0.02,CWS Microserver 1.4,2013-08-02 22:09:00,
2013-08-02 17:14:00,69.2,54.8,30.00,NNE,23,3.6,7.0,60,0.02,,,0.02,CWS Microserver 1.4,2013-08-02 22:14:00,
2013-08-02 17:19:00,69.8,55.7,30.00,NE,54,5.5,7.0,61,0.02,,,0.02,CWS Microserver 1.4,2013-08-02 22:19:00,
2013-08-02 17:24:00,69.8,55.2,30.00,NNE,17,4.3,7.0,59,0.01,,,0.02,CWS Microserver 1.4,2013-08-02 22:24:00,
2013-08-02 17:29:00,69.6,53.9,30.00,NNE,28,3.1,6.5,57,0.01,,,0.02,CWS Microserver 1.4,2013-08-02 22:29:00,
2013-08-02 17:34:00,69.4,52.3,30.00,NNE,23,1.2,6.5,54,0.01,,,0.02,CWS Microserver 1.4,2013-08-02 22:34:00,
2013-08-02 17:39:00,69.4,54.2,30.00,North,357,3.9,5.6,58,0.01,,,0.02,CWS Microserver 1.4,2013-08-02 22:39:00,
2013-08-02 17:44:00,69.4,54.7,30.00,NNE,21,2.7,4.6,59,0.01,,,0.02,CWS Microserver 1.4,2013-08-02 22:44:00,
2013-08-02 17:49:00,69.4,54.6,30.00,NE,34,1.8,4.6,59,0.00,,,0.02,CWS Microserver 1.4,2013-08-02 22:49:00,
2013-08-02 17:54:00,69.6,55.7,30.00,NNE,32,2.3,4.0,61,0.00,,,0.02,CWS Microserver 1.4,2013-08-02 22:54:00,
2013-08-02 17:59:00,69.4,54.9,30.00,NNE,29,3.3,3.4,60,0.00,,,0.02,CWS Microserver 1.4,2013-08-02 22:59:00,
2013-08-02 18:09:00,69.2,53.7,30.00,NNE,20,2.7,3.8,57,0.00,,,0.02,CWS Microserver 1.4,2013-08-02 23:09:00,
2013-08-02 18:14:00,69.2,56.4,30.00,NNE,14,3.1,4.0,63,0.00,,,0.02,CWS Microserver 1.4,2013-08-02 23:14:00,
2013-08-02 18:19:00,69.2,56.6,30.00,NW,323,1.6,4.0,64,0.00,,,0.02,CWS Microserver 1.4,2013-08-02 23:19:00,
2013-08-02 18:24:00,69.2,57.1,30.01,NW,322,3.3,4.0,65,0.00,,,0.02,CWS Microserver 1.4,2013-08-02 23:24:00,
2013-08-02 18:29:00,69.0,56.5,30.01,NNW,337,4.0,4.9,64,0.00,,,0.02,CWS Microserver 1.4,2013-08-02 23:29:00,
2013-08-02 18:34:00,69.0,58.1,30.02,NNW,328,1.8,4.9,68,0.00,,,0.02,CWS Microserver 1.4,2013-08-02 23:34:00,
2013-08-02 18:39:00,69.0,57.2,30.02,NNW,334,3.8,5.1,66,0.00,,,0.02,CWS Microserver 1.4,2013-08-02 23:39:00,
2013-08-02 18:44:00,69.0,55.7,30.02,NNW,348,3.3,5.1,62,0.00,,,0.02,CWS Microserver 1.4,2013-08-02 23:44:00,
2013-08-02 18:49:00,69.0,58.0,30.02,NW,311,1.0,4.7,68,0.00,,,0.02,CWS Microserver 1.4,2013-08-02 23:49:00,
2013-08-02 18:54:00,69.0,58.2,30.02,NW,309,2.4,4.1,68,0.00,,,0.02,CWS Microserver 1.4,2013-08-02 23:54:00,
2013-08-02 18:59:00,69.0,56.4,30.02,WNW,303,2.9,3.7,64,0.00,,,0.02,CWS Microserver 1.4,2013-08-02 23:59:00,
2013-08-02 19:09:00,69.4,55.8,30.01,West,276,2.6,4.2,62,0.00,,,0.02,CWS Microserver 1.4,2013-08-03 00:09:00,
2013-08-02 19:14:00,69.4,55.1,30.01,West,278,4.1,4.3,60,0.00,,,0.02,CWS Microserver 1.4,2013-08-03 00:14:00,
2013-08-02 19:19:00,69.6,52.3,30.01,WNW,292,3.8,4.3,54,0.00,,,0.02,CWS Microserver 1.4,2013-08-03 00:19:00,
2013-08-02 19:24:00,69.6,54.5,30.01,WSW,256,3.6,5.4,58,0.00,,,0.02,CWS Microserver 1.4,2013-08-03 00:24:00,
2013-08-02 19:29:00,69.8,55.1,30.01,WNW,292,2.5,5.4,59,0.00,,,0.02,CWS Microserver 1.4,2013-08-03 00:29:00,
2013-08-02 19:34:00,69.6,54.8,30.01,West,274,3.5,4.3,59,0.00,,,0.02,CWS Microserver 1.4,2013-08-03 00:34:00,
2013-08-02 19:39:00,69.9,54.6,30.02,WNW,294,3.7,4.3,58,0.00,,,0.02,CWS Microserver 1.4,2013-08-03 00:39:00,
2013-08-02 19:44:00,69.9,56.1,30.02,NW,318,3.2,4.5,61,0.00,,,0.02,CWS Microserver 1.4,2013-08-03 00:44:00,
2013-08-02 19:49:00,69.9,56.8,30.02,West,280,3.1,4.8,63,0.00,,,0.02,CWS Microserver 1.4,2013-08-03 00:49:00,
2013-08-02 19:54:00,69.4,57.3,30.02,West,276,3.2,4.8,65,0.00,,,0.02,CWS Microserver 1.4,2013-08-03 00:54:00,
2013-08-02 19:59:00,69.0,57.8,30.02,WNW,283,3.8,4.5,67,0.00,,,0.02,CWS Microserver 1.4,2013-08-03 00:59:00,
2013-08-02 20:04:00,68.7,57.6,30.02,West,275,3.3,4.4,67,0.00,,,0.02,CWS Microserver 1.4,2013-08-03 01:04:00,
2013-08-02 20:09:00,68.3,58.0,30.02,WNW,298,1.7,4.4,69,0.00,,,0.02,CWS Microserver 1.4,2013-08-03 01:09:00,
2013-08-02 20:14:00,68.1,58.4,30.02,WNW,291,3.7,4.4,71,0.00,,,0.02,CWS Microserver 1.4,2013-08-03 01:14:00,
2013-08-02 20:19:00,67.8,58.0,30.02,WNW,288,3.1,3.9,71,0.00,,,0.02,CWS Microserver 1.4,2013-08-03 01:19:00,
2013-08-02 20:24:00,67.6,57.6,30.02,WNW,292,3.7,3.9,70,0.00,,,0.02,CWS Microserver 1.4,2013-08-03 01:24:00,
2013-08-02 20:29:00,67.2,58.0,30.02,WNW,284,3.7,4.5,72,0.00,,,0.02,CWS Microserver 1.4,2013-08-03 01:29:00,
2013-08-02 20:34:00,66.9,57.7,30.03,WNW,283,3.5,4.6,72,0.00,,,0.02,CWS Microserver 1.4,2013-08-03 01:34:00,
2013-08-02 20:44:00,66.2,57.5,30.03,WNW,287,3.5,4.8,73,0.00,,,0.02,CWS Microserver 1.4,2013-08-03 01:44:00,
2013-08-02 20:49:00,65.8,56.6,30.03,WNW,290,4.2,4.5,72,0.00,,,0.02,CWS Microserver 1.4,2013-08-03 01:49:00,
2013-08-02 20:54:00,65.8,56.6,30.04,NW,307,2.4,4.5,72,0.00,,,0.02,CWS Microserver 1.4,2013-08-03 01:54:00,
2013-08-02 20:59:00,65.4,56.6,30.04,NW,320,2.0,4.4,73,0.00,,,0.02,CWS Microserver 1.4,2013-08-03 01:59:00,
2013-08-02 21:04:00,65.1,56.2,30.04,NW,305,3.6,3.9,73,0.00,,,0.02,CWS Microserver 1.4,2013-08-03 02:04:00,
2013-08-02 21:09:00,65.4,55.8,30.04,NW,311,3.4,4.8,71,0.00,,,0.02,CWS Microserver 1.4,2013-08-03 02:09:00,
2013-08-02 21:14:00,65.4,55.8,30.04,WNW,295,3.6,4.8,71,0.00,,,0.02,CWS Microserver 1.4,2013-08-03 02:14:00,
2013-08-02 21:19:00,64.7,55.9,30.05,WNW,292,3.0,4.8,73,0.00,,,0.02,CWS Microserver 1.4,2013-08-03 02:19:00,
2013-08-02 21:24:00,64.5,55.9,30.05,WNW,301,2.9,4.7,73,0.00,,,0.02,CWS Microserver 1.4,2013-08-03 02:24:00,
2013-08-02 21:29:00,64.4,56.0,30.05,WNW,298,2.9,4.7,74,0.00,,,0.02,CWS Microserver 1.4,2013-08-03 02:29:00,
2013-08-02 21:34:00,64.4,55.9,30.06,NW,307,3.1,4.0,74,0.00,,,0.02,CWS Microserver 1.4,2013-08-03 02:34:00,
2013-08-02 21:39:00,64.5,55.9,30.06,NW,307,2.9,4.0,73,0.00,,,0.02,CWS Microserver 1.4,2013-08-03 02:39:00,
2013-08-02 21:44:00,64.9,56.0,30.06,WNW,289,2.6,3.8,72,0.00,,,0.02,CWS Microserver 1.4,2013-08-03 02:44:00,
2013-08-02 21:49:00,64.5,55.8,30.06,WNW,288,3.1,3.8,73,0.00,,,0.02,CWS Microserver 1.4,2013-08-03 02:49:00,
2013-08-02 21:54:00,64.4,56.0,30.06,West,280,2.9,3.7,74,0.00,,,0.02,CWS Microserver 1.4,2013-08-03 02:54:00,
2013-08-02 21:59:00,64.4,56.1,30.07,WNW,287,3.1,3.8,74,0.00,,,0.02,CWS Microserver 1.4,2013-08-03 02:59:00,
2013-08-02 22:04:00,64.2,56.2,30.07,WNW,285,3.2,3.8,75,0.00,,,0.02,CWS Microserver 1.4,2013-08-03 03:04:00,
2013-08-02 22:09:00,63.8,55.9,30.07,West,280,4.6,4.9,75,0.00,,,0.02,CWS Microserver 1.4,2013-08-03 03:09:00,
2013-08-02 22:14:00,64.0,55.9,30.07,WNW,284,3.8,4.9,75,0.00,,,0.02,CWS Microserver 1.4,2013-08-03 03:14:00,
2013-08-02 22:19:00,64.2,56.0,30.07,WNW,289,3.8,4.7,74,0.00,,,0.02,CWS Microserver 1.4,2013-08-03 03:19:00,
2013-08-02 22:24:00,63.8,56.0,30.07,WNW,287,4.0,4.3,75,0.00,,,0.02,CWS Microserver 1.4,2013-08-03 03:24:00,
2013-08-02 22:29:00,63.1,55.8,30.07,West,277,6.0,6.0,77,0.00,,,0.02,CWS Microserver 1.4,2013-08-03 03:29:00,
2013-08-02 22:34:00,62.7,55.7,30.08,West,274,5.1,6.6,77,0.00,,,0.02,CWS Microserver 1.4,2013-08-03 03:34:00,
2013-08-02 22:39:00,62.7,55.6,30.08,West,276,5.5,6.6,77,0.00,,,0.02,CWS Microserver 1.4,2013-08-03 03:39:00,
2013-08-02 22:44:00,62.7,55.5,30.07,West,279,4.5,6.0,77,0.00,,,0.02,CWS Microserver 1.4,2013-08-03 03:44:00,
2013-08-02 22:49:00,62.6,55.5,30.07,WNW,283,3.6,5.5,77,0.00,,,0.02,CWS Microserver 1.4,2013-08-03 03:49:00,
2013-08-02 22:54:00,62.2,55.3,30.08,West,281,4.2,4.6,78,0.00,,,0.02,CWS Microserver 1.4,2013-08-03 03:54:00,
2013-08-02 22:59:00,62.0,55.3,30.07,WNW,285,3.0,4.4,78,0.00,,,0.02,CWS Microserver 1.4,2013-08-03 03:59:00,
2013-08-02 23:04:00,62.2,55.4,30.07,WNW,286,3.0,4.4,78,0.00,,,0.02,CWS Microserver 1.4,2013-08-03 04:04:00,
2013-08-02 23:09:00,62.2,55.4,30.07,WNW,284,3.0,3.5,78,0.00,,,0.02,CWS Microserver 1.4,2013-08-03 04:09:00,
2013-08-02 23:14:00,62.4,55.5,30.07,West,276,2.5,3.4,78,0.00,,,0.02,CWS Microserver 1.4,2013-08-03 04:14:00,
2013-08-02 23:19:00,62.6,55.4,30.07,West,274,2.0,3.1,77,0.00,,,0.02,CWS Microserver 1.4,2013-08-03 04:19:00,
2013-08-02 23:24:00,62.7,55.3,30.07,West,271,2.7,2.9,76,0.00,,,0.02,CWS Microserver 1.4,2013-08-03 04:24:00,
2013-08-02 23:29:00,62.7,55.4,30.07,West,280,3.1,3.2,77,0.00,,,0.02,CWS Microserver 1.4,2013-08-03 04:29:00,
2013-08-02 23:34:00,62.4,55.4,30.07,WNW,290,3.4,3.5,78,0.00,,,0.02,CWS Microserver 1.4,2013-08-03 04:34:00,
2013-08-02 23:39:00,62.0,55.3,30.07,WNW,286,3.4,3.6,78,0.00,,,0.02,CWS Microserver 1.4,2013-08-03 04:39:00,
2013-08-02 23:44:00,61.5,55.4,30.07,West,279,4.4,4.7,80,0.00,,,0.02,CWS Microserver 1.4,2013-08-03 04:44:00,
2013-08-02 23:49:00,61.1,55.2,30.07,West,279,4.2,4.8,80,0.00,,,0.00,CWS Microserver 1.4,2013-08-03 04:49:00,
2013-08-02 23:54:00,60.8,55.0,30.07,WNW,287,3.5,4.8,81,0.00,,,0.00,CWS Microserver 1.4,2013-08-03 04:54:00,
2013-08-02 23:59:00,60.6,54.9,30.07,WNW,292,3.7,4.4,81,0.00,,,0.00,CWS Microserver 1.4,2013-08-03 04:59:00,